Location: Marengo
(51.4813°N, 109.7825°W)
Time: 01:56:21
(UTC+00:00)

BlueWalker 3 - Pass Details

Date: 05 December 2022
Orbit: 499 x 517 km, 53.2° (Epoch: 26 January)

Event Time Altitude Azimuth Distance (km) Brightness Sun altitude
Rises 02:25:20 0° 289° (WNW) 2,630 6.6 -29.0°
Reaches altitude 10° 02:27:34 10° 286° (WNW) 1,737 5.5 -29.3°
Enters shadow 02:29:29 27° 277° (W) 1,019 4.0 -29.6°
